Location: Newark
(40.7060°N, 73.9980°W)
Time: 09:11:55
(UTC+00:00)

N. Korean satellite - Pass Details

Date: 22 November 2019
Orbit: 456 x 506 km, 97.2° (Epoch: 06 December)

Event Time Altitude Azimuth Distance (km) Brightness Sun altitude
Rises 11:08:36 0° 5° (N) 2,607 10.1 -8.2°
Reaches altitude 10° 11:10:45 10° 0° (N) 1,712 9.1 -7.8°
Maximum altitude 11:14:18 48° 286° (WNW) 656 6.8 -7.2°
Drops below altitude 10° 11:17:47 10° 211° (SSW) 1,675 9.2 -6.5°
Sets 11:19:52 0° 206° (SSW) 2,542 10.2 -6.2°
